Regional Weather Roundup
Issued by NWS Little Rock, AR

Home | Current Version | Previous Version | Graphics & Text | Print | Product List | Glossary On
Versions: 1 2 3 4 5 6 7 8 9 10 11 12 13 14 15 16 17 18 19 20 21 22 23 24 25 26 27 28 29 30 31 32 33 34 35 36 37 38 39 40 41 42 43 44 45 46 47 48 49 50
000
ASUS44 KLZK 251812
RWRLZK

WEATHER ROUNDUP FOR ARKANSAS
NATIONAL WEATHER SERVICE LITTLE ROCK AR
100 PM CDT TUE APR 25 2017

NOTE: "FAIR" INDICATES FEW OR NO CLOUDS BELOW 12,000 FEET WITH NO
SIGNIFICANT WEATHER AND/OR OBSTRUCTIONS TO VISIBILITY.

ARZ001-003-010-029-251900-
NORTHWEST ARKANSAS

CITY           SKY/WX    TMP DP  RH WIND       PRES   REMARKS
FAYETTEVILLE   LGT RAIN  76  59  55 S20G28    29.50F
6HR MIN TEMP:  58; 6HR MAX TEMP:  76; 6HR PCP: TRACE;

FORT SMITH     SUNNY     82  58  43 S10G21    29.50F
6HR MIN TEMP:  55; 6HR MAX TEMP:  82;

HARRISON       SUNNY     76  54  46 S20G28    29.54F
6HR MIN TEMP:  52; 6HR MAX TEMP:  78;

BENTONVILLE    SUNNY     75  55  50 S21G28    29.50F
6HR MIN TEMP:  55; 6HR MAX TEMP:  75;

ROGERS         MOSUNNY   77  57  50 S22G29    29.50F
6HR MIN TEMP:  55; 6HR MAX TEMP:  77;

SILOAM SPGS    SUNNY     75  55  50 S24G32    29.48F
6HR MIN TEMP:  57; 6HR MAX TEMP:  75;

HIGHFILL       SUNNY     76  57  51 S20G30    29.48F
SPRINGDALE     MOSUNNY   77  57  50 S23G30    29.51F
$$

ARZ004-005-016-251900-
NORTH CENTRAL ARKANSAS

CITY           SKY/WX    TMP DP  RH WIND       PRES   REMARKS
BATESVILLE     SUNNY    N/A N/A N/A S13G22    29.63F
FLIPPIN        SUNNY    N/A N/A N/A S13G21    29.52F
MTN HOME       SUNNY     77  53  43 S14G25    29.55F
6HR MIN TEMP:  53; 6HR MAX TEMP:  77;

$$

ARZ040-041-251900-
WEST CENTRAL ARKANSAS

CITY           SKY/WX    TMP DP  RH WIND       PRES   REMARKS
MENA           MOSUNNY   77  63  61 SW12G20   29.58F
MOUNT IDA      PTSUNNY   77  57  50 S9G20     29.57
6HR MIN TEMP:  62; 6HR MAX TEMP:  77;

$$

ARZ009-017-025-026-028-251900-
NORTHEAST ARKANSAS

CITY           SKY/WX    TMP DP  RH WIND       PRES   REMARKS
CORNING        FAIR      77  55  47 S20       29.65F
JONESBORO      SUNNY     78  54  43 S17G23    29.66F
6HR MIN TEMP:  56; 6HR MAX TEMP:  78;

NEWPORT        SUNNY     77  55  46 MISG      29.64F
6HR MIN TEMP:  52; 6HR MAX TEMP:  77;

WALNUT RIDGE   SUNNY     75  54  46 S25G31    29.64F
6HR MIN TEMP:  55; 6HR MAX TEMP:  75;

BLYTHEVILLE    SUNNY     76  53  44 S12       29.70F
6HR MIN TEMP:  56; 6HR MAX TEMP:  76;

NW BLYTHEVILLE SUNNY     79  52  38 S18G25    29.68F
$$

ARZ022-023-033-042-044-251900-
CENTRAL ARKANSAS

CITY           SKY/WX    TMP DP  RH WIND       PRES   REMARKS
LITTLE ROCK    MOSUNNY   77  54  44 S15G22    29.64F
6HR MIN TEMP:  52; 6HR MAX TEMP:  77;

N LITTLE ROCK    N/A     76  54  47 S10G21    29.63F
6HR MIN TEMP:  54; 6HR MAX TEMP:  76;

JACKSONVILLE   SUNNY     76  56  48 SE13      29.63F
6HR MIN TEMP:  48; 6HR MAX TEMP:  76;

CONWAY           N/A     77  55  47 S17G25    29.60F
SEARCY         SUNNY     77  56  48 S16G26    29.66F
6HR MIN TEMP:  48; 6HR MAX TEMP:  77;

HOT SPRINGS    SUNNY     77  60  55 S15G23    29.62F
6HR MIN TEMP:  57; 6HR MAX TEMP:  77;

RUSSELLVILLE   SUNNY     77  55  46 SE8G20    29.57F
6HR MIN TEMP:  55; 6HR MAX TEMP:  77;

$$

ARZ036-251900-
EAST ARKANSAS

CITY           SKY/WX    TMP DP  RH WIND       PRES   REMARKS
WEST MEMPHIS   SUNNY     76  56  49 S17G28    29.69F
6HR MIN TEMP:  54; 6HR MAX TEMP:  76;

$$

ARZ050-053-066-070-073-251900-
SOUTHWEST ARKANSAS

CITY           SKY/WX    TMP DP  RH WIND       PRES   REMARKS
ARKADELPHIA    FAIR      77  62  59 S13G22    29.63F
6HR MIN TEMP:  50; 6HR MAX TEMP:  77;

CAMDEN         SUNNY     77  55  47 S13G20    29.66F
TEXARKANA      SUNNY     77  64  64 S15G25    29.62F
6HR MIN TEMP:  57; 6HR MAX TEMP:  77;

EL DORADO        N/A     77  58  51 S18G24    29.69F
DE QUEEN       PTSUNNY   75  63  66 S14G22    29.57F
6HR MIN TEMP:  57; 6HR MAX TEMP:  76;

$$

ARZ056-057-069-251900-
SOUTHEAST ARKANSAS

CITY           SKY/WX    TMP DP  RH WIND       PRES   REMARKS
PINE BLUFF     SUNNY     77  54  44 S16G25    29.67F
6HR MIN TEMP:  55; 6HR MAX TEMP:  77;

STUTTGART      SUNNY    N/A N/A N/A S23       29.67F
6HR MIN TEMP:  59; 6HR MAX TEMP:  79;

MONTICELLO     SUNNY     77  51  40 S15G21    29.69F
6HR MIN TEMP:  59; 6HR MAX TEMP:  79;


$$





USA.gov is the U.S. government's official web portal to all federal, state and local government web resources and services.